Pekanbaru

Airport
ICAO code: 
WIBB
Summary
ICAO Region: 
APAC
Territory: 
Location: 
Pekanbaru,
Coordinates: 
Aerial View: 
0° 27' 53.076" N, 101° 26' 47.103" E
Airport WX: 
Volcanic Ash
Metar
Observation
WIBB 190130Z 00000KT 6000 BKN010 25/23 Q1011
Station
Pakanbaru / Simpangtiga
Date/Time
2022-01-19 01:30:00
Wind direction
Wind speed
00 kts
Lowest cloud amount
broken clouds
Temperature
25°C
Dew point
23°C
Humidity
88%
QNH
1011 hPa
Weather condition
n/a

Description

International airport serving Pekanbaru, Sumatra, Indonesia.

Climatology

Tropical Rainforest climate (Köppen climate classification Af) - almost no distinct seasons, average daily temperature around 27°C throughout the year. Extensive cloud cover and heavy rainfall prevent temperatures from rising much over 33°C. The diurnal temperature change is between 2°C and 5°C which is greater than the annual temperature range of 2°C. Rainfall is heavy and is usually convectional and in the afternoon.

Runways

Designator Length Width Surface Rops
18/36 2243 30 ASP Yes/Yes
Airport map: 
Aerial View: 

Accidents and Serious Incidents at or in the vicinity of WIBB

SKYbrary Partners:

Safety knowledge contributed by: